Location: Ajisawe
(8.4333°N, 4.3833°E)
Time: 07:09:25
(UTC+00:00)

A-11 Canister half - Pass Details

Date: 20 April 2021
Orbit: 1514 x 1685 km, 47.2° (Epoch: 12 May)

Event Time Altitude Azimuth Distance (km) Brightness Sun altitude
Rises 02:50:29 0° 340° (NNW) 4,855 11.7 -38.9°
Reaches altitude 10° 02:54:52 10° 357° (N) 3,894 11.3 -37.9°
Maximum altitude 03:01:41 20° 41° (NE) 3,191 11.1 -36.3°
Drops below altitude 10° 03:08:32 10° 84° (E) 3,943 11.9 -34.8°
Sets 03:12:56 0° 100° (E) 4,933 12.4 -33.7°
